This is the latest recevied weather packets stored in our database for station/object W1SCW. If no packets are shown the sender has not sent any weather packets the latest 10 day(s).
| Time | Temp. | Humidity | Pressure | Rain* | Wind** | Luminosity | Snow |
|---|---|---|---|---|---|---|---|
| 1777220065 | 28.89° C | 75% | 1008.3 hPa | 0 mm | - | 546 W/m² | - |
| 1777219762 | 28.89° C | 74% | 1008.2 hPa | 0 mm | - | 329 W/m² | - |
| 1777219460 | 29.44° C | 75% | 1008.3 hPa | 0 mm | - | 376 W/m² | - |
| 1777219156 | 28.89° C | 76% | 1008.2 hPa | 0 mm | - | 425 W/m² | - |
| 1777218852 | 28.89° C | 77% | 1008.5 hPa | 0 mm | - | 658 W/m² | - |
| 1777218548 | 27.78° C | 78% | 1008.3 hPa | 0 mm | - | 368 W/m² | - |
| 1777218243 | 27.78° C | 79% | 1008.2 hPa | 0 mm | - | 369 W/m² | - |
| 1777217940 | 27.78° C | 79% | 1008.2 hPa | 0 mm | - | 371 W/m² | - |
| 1777217635 | 27.78° C | 80% | 1008 hPa | 0 mm | - | 353 W/m² | - |
| 1777217332 | 27.78° C | 79% | 1008.2 hPa | 0 mm | - | 415 W/m² | - |
| 1777217028 | 27.78° C | 79% | 1008.2 hPa | 0 mm | - | 450 W/m² | - |
| 1777216725 | 28.33° C | 80% | 1008.2 hPa | 0 mm | - | 464 W/m² | - |
| 1777216420 | 27.78° C | 82% | 1008 hPa | 0 mm | - | 601 W/m² | - |
| 1777216119 | 27.22° C | 84% | 1008.1 hPa | 0 mm | - | 376 W/m² | - |
| 1777215814 | 26.67° C | 84% | 1008 hPa | 0 mm | - | 360 W/m² | - |
| 1777215510 | 26.67° C | 85% | 1008 hPa | 0 mm | - | 326 W/m² | - |
| 1777215207 | 26.11° C | 87% | 1007.9 hPa | 0 mm | - | 252 W/m² | - |
| 1777214902 | 26.11° C | 87% | 1007.9 hPa | 0 mm | - | 217 W/m² | - |
| 1777214601 | 26.11° C | 88% | 1007.9 hPa | 0 mm | - | 253 W/m² | - |
| 1777214297 | 25.56° C | 89% | 1007.8 hPa | 0 mm | - | 191 W/m² | - |
| 1777213996 | 25.56° C | 90% | 1007.8 hPa | 0 mm | - | 145 W/m² | - |
| 1777213696 | 25.56° C | 90% | 1007.8 hPa | 0 mm | - | 105 W/m² | - |
| 1777213392 | 25.56° C | 91% | 1007.9 hPa | 0 mm | - | 108 W/m² | - |
| 1777213090 | 25° C | 91% | 1007.8 hPa | 0 mm | - | 95 W/m² | - |
| 1777212786 | 25° C | 92% | 1007.7 hPa | 0 mm | - | 85 W/m² | - |
* Rain latest hour (hover to see other rain measurements)
** Current wind speed in m/s (hover to see current wind gust speed)